This is the latest recevied weather packets stored in our database for station/object K5GHS-1. If no packets are shown the sender has not sent any weather packets the latest 10 day(s).
| Time | Temp. | Humidity | Pressure | Rain* | Wind** | Luminosity | Snow |
|---|---|---|---|---|---|---|---|
| 1777133948 | 28.33° C | 75% | 1006.1 hPa | 0 mm | - | 383 W/m² | - |
| 1777133644 | 28.33° C | 76% | 1006.1 hPa | 0 mm | - | 542 W/m² | - |
| 1777133343 | 27.78° C | 77% | 1006 hPa | 0 mm | - | 454 W/m² | - |
| 1777133043 | 27.22° C | 77% | 1006 hPa | 0 mm | - | 708 W/m² | - |
| 1777132739 | 26.67° C | 79% | 1006 hPa | 0 mm | - | 351 W/m² | - |
| 1777132435 | 26.67° C | 80% | 1006.2 hPa | 0 mm | - | 259 W/m² | - |
| 1777132133 | 26.67° C | 81% | 1006 hPa | 0 mm | - | 458 W/m² | - |
| 1777131829 | 26.67° C | 82% | 1006.1 hPa | 0 mm | - | 192 W/m² | - |
| 1777131526 | 25.56° C | 84% | 1006 hPa | 0 mm | - | 305 W/m² | - |
| 1777131221 | 25.56° C | 85% | 1005.9 hPa | 0 mm | - | 202 W/m² | - |
| 1777130916 | 25° C | 86% | 1006 hPa | 0 mm | - | 349 W/m² | - |
| 1777130612 | 25° C | 87% | 1005.8 hPa | 0 mm | - | 151 W/m² | - |
| 1777130309 | 25° C | 88% | 1005.8 hPa | 0 mm | - | 301 W/m² | - |
| 1777130005 | 24.44° C | 89% | 1005.6 hPa | 0 mm | - | 161 W/m² | - |
| 1777129700 | 24.44° C | 90% | 1005.8 hPa | 0 mm | - | 186 W/m² | - |
| 1777129394 | 23.89° C | 91% | 1006 hPa | 0 mm | - | 180 W/m² | - |
| 1777129089 | 23.33° C | 92% | 1005.7 hPa | 0 mm | - | 140 W/m² | - |
| 1777128785 | 22.78° C | 92% | 1005.9 hPa | 0 mm | - | 190 W/m² | - |
| 1777128483 | 22.78° C | 92% | 1006 hPa | 0 mm | - | 112 W/m² | - |
| 1777128180 | 22.22° C | 92% | 1005.9 hPa | 0 mm | - | 72 W/m² | - |
| 1777127877 | 22.22° C | 92% | 1006.1 hPa | 0 mm | - | 79 W/m² | - |
| 1777127574 | 21.67° C | 92% | 1006.1 hPa | 0 mm | - | 69 W/m² | - |
| 1777127270 | 21.67° C | 93% | 1006 hPa | 0 mm | - | 92 W/m² | - |
| 1777126966 | 21.67° C | 94% | 1006.2 hPa | 0 mm | - | 84 W/m² | - |
| 1777126663 | 21.11° C | 94% | 1005.9 hPa | 0 mm | - | 95 W/m² | - |
* Rain latest hour (hover to see other rain measurements)
** Current wind speed in m/s (hover to see current wind gust speed)